Location: Handeloh
(53.2500°N, 9.8330°E)
Time: 19:00:15
(UTC+01:00)

S-56A Canister/Altair - Pass Details

Date: 26 November 2019
Orbit: 632 x 2500 km, 38.9° (Epoch: 14 December)

Event Time Altitude Azimuth Distance (km) Brightness Sun altitude
Rises 12:32:30 0° 184° (S) 6,101 14.0 15.6°
Reaches altitude 10° 12:40:17 10° 160° (SSE) 4,850 12.9 15.5°
Maximum altitude 12:44:43 12° 140° (SE) 4,446 12.1 15.4°
Drops below altitude 10° 12:48:47 10° 120° (ESE) 4,397 11.7 15.3°
Sets 12:54:50 0° 94° (E) 4,959 11.6 15.1°
